Temp
-10 -10 -10 -10 -10 -10 -9 -9 -10 -10 -9 -9 -9 -9 -8 -8 -8 -8 -7 -7 -7 -7 -7 -7 -7 -7 -6 -6 -6 -6 -6 -6 -6
-10 -10 -10 -10 -10 -10 -10 -10 -10 -10 -10 -10 -9 -9 -9 -8 -8 -8 -8 -8 -7 -7 -7 -7 -7 -7 -7 -7 -6 -6 -6 -6 -6
-10 -10 -10 -10 -10 -10 -10 -10 -9 -9 -10 -10 -10 -10 -9 -9 -9 -8 -8 -8 -8 -8 -7 -7 -7 -7 -7 -7 -7 -7 -7 -6 -6
-11 -11 -10 -11 -10 -10 -10 -10 -10 -11 -10 -10 -10 -10 -9 -9 -9 -9 -9 -9 -8 -8 -8 -8 -8 -7 -7 -8 -8 -7 -7 -7 -7
-10 -11 -11 -11 -11 -11 -11 -10 -10 -11 -10 -11 -10 -10 -10 -9 -9 -9 -9 -9 -8 -8 -8 -8 -8 -8 -8 -8 -8 -8 -8 -7 -7
-11 -11 -11 -11 -11 -11 -11 -11 -11 -11 -11 -11 -11 -11 -10 -10 -10 -9 -9 -9 -9 -8 -8 -8 -8 -8 -8 -8 -8 -8 -8 -7 -7
-12 -12 -11 -11 -12 -11 -11 -11 -11 -11 -12 -12 -11 -11 -11 -11 -10 -10 -10 -9 -9 -9 -9 -8 -9 -9 -8 -8 -8 -8 -8 -8 -8
-12 -12 -12 -12 -12 -12 -12 -11 -11 -11 -11 -12 -12 -11 -11 -11 -11 -11 -10 -10 -10 -9 -10 -9 -9 -9 -9 -9 -9 -8 -8 -8 -8
-13 -13 -13 -12 -12 -12 -12 -12 -12 -11 -11 -11 -12 -12 -12 -12 -13 -12 -10 -10 -10 -10 -10 -10 -9 -9 -9 -9 -9 -9 -9 -9 -8
-13 -13 -13 -13 -13 -13 -12 -12 -13 -12 -12 -11 -11 -12 -12 -12 -11 -12 -11 -11 -10 -11 -10 -10 -10 -9 -10 -9 -9 -9 -9 -9 -9
-15 -15 -14 -14 -13 -13 -13 -13 -13 -13 -13 -12 -11 -11 -12 -12 -12 -11 -11 -11 -11 -11 -11 -11 -10 -10 -10 -10 -10 -10 -10 -10 -9
-15 -15 -15 -15 -14 -14 -14 -14 -13 -13 -13 -13 -13 -12 -11 -11 -11 -12 -11 -11 -11 -11 -11 -11 -11 -11 -10 -10 -10 -10 -10 -10 -10
-17 -16 -16 -16 -16 -15 -15 -14 -14 -13 -13 -13 -13 -13 -12 -12 -11 -11 -11 -11 -11 -11 -11 -11 -11 -11 -12 -11 -10 -10 -10 -10 -10
-19 -17 -17 -17 -16 -16 -16 -15 -15 -15 -14 -13 -13 -13 -13 -12 -12 -11 -11 -11 -11 -11 -11 -11 -11 -11 -11 -11 -12 -11 -11 -10 -10
-23 -21 -19 -17 -17 -18 -17 -17 -16 -15 -15 -14 -14 -13 -13 -13 -12 -12 -12 -11 -11 -11 -11 -11 -11 -11 -11 -11 -11 -12 -11 -11 -11
-25 -24 -23 -21 -19 -18 -17 -18 -17 -17 -17 -16 -14 -14 -13 -13 -13 -12 -12 -12 -12 -11 -11 -11 -11 -11 -11 -11 -11 -11 -11 -11 -11
-25 -26 -25 -24 -23 -22 -19 -19 -17 -17 -18 -17 -17 -15 -14 -13 -13 -13 -13 -12 -12 -12 -11 -11 -11 -11 -11 -11 -11 -11 -11 -11 -11
-26 -26 -26 -26 -25 -24 -23 -22 -21 -19 -18 -18 -18 -17 -16 -15 -14 -13 -13 -13 -13 -13 -12 -12 -12 -11 -11 -11 -11 -11 -11 -11 -11
-26 -26 -26 -27 -27 -27 -26 -26 -25 -24 -20 -20 -18 -18 -17 -17 -16 -15 -14 -13 -14 -14 -13 -13 -12 -12 -11 -11 -11 -11 -11 -11 -11
-26 -26 -26 -27 -27 -28 -28 -28 -28 -27 -26 -24 -22 -20 -18 -17 -17 -16 -15 -14 -14 -14 -14 -13 -13 -12 -12 -12 -11 -11 -11 -11 -11
Height
5807 5804 5804 5806 5807 5808 5809 5810 5811 5811 5812 5814 5816 5817 5818 5820 5823 5824 5827 5830 5831 5833 5835 5838 5840 5841 5843 5845 5847 5848 5849 5850 5851
5800 5799 5798 5798 5798 5799 5801 5803 5804 5804 5805 5807 5808 5810 5812 5814 5817 5819 5821 5824 5826 5828 5830 5832 5835 5837 5839 5840 5842 5843 5845 5846 5847
5792 5791 5791 5791 5790 5791 5792 5791 5794 5796 5797 5798 5800 5802 5805 5807 5810 5812 5815 5818 5820 5822 5824 5827 5829 5831 5834 5835 5837 5838 5840 5841 5843
5781 5781 5781 5781 5782 5783 5783 5783 5781 5784 5786 5790 5792 5795 5797 5801 5803 5805 5808 5811 5813 5816 5817 5820 5823 5825 5827 5829 5831 5834 5835 5837 5839
5769 5769 5770 5771 5771 5772 5773 5773 5770 5774 5777 5780 5783 5786 5788 5792 5795 5797 5799 5803 5805 5808 5811 5813 5815 5818 5821 5823 5825 5828 5830 5833 5835
5756 5757 5757 5758 5760 5760 5761 5762 5761 5761 5766 5769 5774 5775 5779 5783 5786 5788 5791 5794 5796 5799 5803 5806 5808 5811 5813 5816 5818 5821 5824 5827 5829
5742 5743 5743 5744 5745 5747 5749 5750 5751 5751 5755 5759 5763 5766 5768 5771 5775 5778 5782 5784 5786 5789 5793 5797 5800 5803 5805 5808 5811 5813 5817 5819 5821
5725 5725 5726 5728 5729 5731 5734 5736 5738 5740 5741 5744 5749 5753 5756 5758 5763 5767 5772 5772 5776 5779 5782 5786 5791 5794 5797 5800 5803 5806 5809 5812 5814
5702 5705 5707 5710 5712 5714 5716 5720 5723 5726 5729 5731 5736 5741 5743 5747 5752 5756 5760 5762 5764 5769 5773 5776 5781 5785 5788 5792 5794 5798 5800 5804 5806
5676 5680 5684 5688 5692 5694 5698 5702 5705 5709 5713 5717 5720 5725 5731 5735 5739 5745 5749 5750 5753 5756 5761 5766 5770 5775 5778 5781 5785 5788 5792 5796 5799
5650 5653 5656 5663 5668 5672 5677 5681 5684 5690 5696 5700 5705 5709 5714 5720 5725 5731 5737 5741 5744 5749 5753 5755 5758 5765 5768 5772 5775 5779 5782 5787 5790
5622 5626 5631 5636 5641 5646 5653 5658 5663 5668 5674 5682 5687 5693 5698 5704 5709 5714 5722 5729 5734 5739 5744 5749 5750 5754 5758 5762 5766 5770 5773 5777 5781
5592 5597 5602 5608 5612 5620 5626 5632 5639 5646 5651 5658 5666 5673 5680 5686 5693 5699 5704 5712 5720 5726 5732 5739 5742 5746 5749 5752 5757 5761 5765 5768 5772
5560 5565 5573 5577 5583 5591 5599 5606 5611 5619 5627 5634 5642 5650 5659 5668 5674 5681 5688 5695 5703 5712 5719 5725 5731 5736 5741 5745 5748 5752 5756 5759 5764
5531 5534 5539 5545 5555 5564 5570 5577 5584 5593 5601 5609 5617 5627 5636 5646 5655 5663 5670 5678 5687 5695 5702 5710 5717 5724 5730 5735 5740 5743 5746 5750 5754
5513 5512 5514 5517 5523 5529 5538 5547 5555 5565 5576 5582 5594 5602 5612 5622 5632 5642 5651 5660 5669 5678 5686 5694 5702 5709 5717 5723 5729 5734 5738 5742 5745
5499 5496 5495 5497 5497 5501 5507 5514 5526 5535 5548 5555 5563 5577 5588 5599 5606 5617 5630 5642 5650 5659 5669 5677 5686 5693 5702 5710 5716 5722 5727 5732 5736
5485 5483 5481 5480 5480 5482 5487 5491 5495 5504 5518 5528 5536 5548 5561 5569 5579 5592 5605 5619 5629 5640 5649 5659 5669 5677 5687 5696 5703 5709 5716 5720 5725
5474 5471 5469 5468 5466 5467 5470 5473 5475 5478 5489 5497 5509 5518 5532 5542 5554 5566 5578 5592 5607 5617 5628 5640 5650 5661 5671 5681 5689 5696 5702 5708 5713
5462 5460 5457 5456 5456 5455 5457 5459 5460 5463 5468 5475 5482 5491 5504 5514 5527 5541 5552 5564 5580 5590 5604 5618 5631 5643 5654 5664 5672 5680 5688 5694 5700
Wind_Speed
39 37 37 43 37 36 36 35 36 36 36 34 33 32 32 32 31 30 29 29 28 27 26 26 25 24 24 23 23 22 22 21 20
42 41 42 43 40 41 37 39 39 37 39 37 36 35 34 34 33 32 31 31 30 30 29 28 28 27 27 26 26 24 23 22 22
44 46 45 44 43 44 42 44 42 43 41 42 40 38 37 37 36 35 34 33 33 32 32 31 31 30 29 28 27 25 24 23 23
49 48 49 47 46 46 46 46 43 44 46 46 44 42 41 40 38 37 37 36 36 35 35 35 34 33 32 30 29 28 26 25 25
54 53 52 52 51 50 51 51 54 51 42 47 48 46 45 44 41 41 41 40 41 40 39 38 37 37 36 34 33 31 29 28 28
59 58 58 56 55 54 55 55 55 55 50 48 49 47 48 48 46 44 44 44 45 44 44 42 42 41 40 38 36 34 33 32 30
65 64 64 62 59 59 59 59 59 57 52 48 50 48 48 50 50 50 42 46 48 46 50 46 45 43 42 42 39 38 37 35 34
73 71 71 70 69 66 65 64 63 62 58 54 50 53 57 50 52 51 50 38 45 47 52 49 48 45 43 41 40 40 38 38 36
79 79 78 77 77 75 73 71 70 67 66 63 59 56 55 56 56 50 55 58 45 40 37 51 51 48 45 45 42 39 42 42 39
86 84 82 82 81 81 79 77 76 75 73 72 69 65 62 60 57 56 55 58 57 48 43 40 41 43 48 54 51 47 43 41 40
92 89 86 84 87 85 83 81 81 80 79 78 77 75 72 69 66 62 59 58 55 53 46 40 41 40 42 38 39 41 45 46 42
96 97 94 93 91 90 92 88 87 87 85 83 82 81 79 76 74 71 67 63 61 58 53 48 49 40 37 35 35 35 31 37 38
100 100 99 97 96 97 97 96 95 94 93 91 88 85 84 82 79 77 75 71 66 64 60 54 54 48 41 40 33 31 35 33 36
100 104 103 102 101 101 97 102 102 99 99 98 95 93 90 87 86 83 79 76 72 69 66 62 56 54 47 44 42 40 39 36 35
67 86 102 107 108 103 101 101 102 105 103 104 104 101 98 94 91 88 84 80 76 73 69 66 63 58 55 51 47 44 44 37 36
51 57 66 84 110 109 111 108 107 105 103 106 109 109 105 102 98 95 92 87 83 79 75 71 67 63 58 56 51 49 46 45 41
46 46 51 56 67 88 107 110 113 110 107 107 110 110 111 108 106 102 96 92 90 85 80 78 73 68 65 60 55 51 50 49 46
44 43 41 44 52 63 68 85 102 110 109 111 111 113 112 111 112 110 105 98 94 90 87 83 81 75 70 66 64 59 55 53 51
41 42 42 38 38 44 52 56 62 77 102 104 110 112 115 113 115 112 112 110 103 99 95 89 86 82 79 73 68 66 63 59 56
37 38 40 41 39 37 40 44 48 53 61 71 83 101 108 110 112 113 115 113 107 105 102 98 93 86 83 81 78 72 67 66 62
Wind_Direction
268 262 259 252 253 252 249 247 244 243 243 241 238 234 231 229 226 223 220 222 223 223 226 227 229 232 235 240 244 247 252 256 257
267 264 264 263 258 250 252 248 247 243 242 242 240 236 232 230 229 228 226 226 227 228 228 231 233 236 238 242 244 247 251 251 253
266 266 265 263 260 261 254 244 247 246 242 240 241 241 237 233 230 230 231 230 231 233 233 233 236 238 241 245 247 250 253 253 256
265 262 263 261 261 259 257 255 247 240 240 240 239 240 241 239 236 234 234 235 235 236 237 238 240 242 244 247 251 253 254 255 257
263 263 259 259 257 256 257 256 260 255 243 239 237 236 238 241 240 240 238 238 238 239 239 240 242 244 245 246 249 253 255 256 256
261 260 260 256 254 254 254 255 255 259 258 250 237 235 236 240 242 242 242 242 242 242 242 242 243 243 245 247 249 251 253 255 255
259 258 258 257 254 252 252 252 253 255 255 250 248 235 235 238 237 240 244 247 243 243 244 243 244 245 246 246 247 247 250 251 253
258 257 257 255 255 253 250 251 251 253 253 253 248 247 249 237 235 235 235 243 238 244 242 241 240 241 242 246 248 249 251 251 253
255 254 254 255 253 252 251 249 249 249 251 251 252 248 246 250 252 244 234 237 245 237 236 239 239 242 244 245 246 248 249 249 250
256 255 252 250 250 249 249 249 248 248 248 249 250 250 248 248 242 244 244 246 245 246 241 233 235 240 243 243 244 244 244 246 248
253 253 253 251 248 246 245 247 248 247 248 248 248 248 248 247 248 243 241 244 246 250 250 247 235 238 239 236 237 242 243 242 246
255 253 252 251 250 246 244 244 244 245 246 247 247 247 248 247 247 247 244 242 244 246 247 248 251 239 241 234 230 236 243 239 242
257 256 253 250 248 249 246 245 246 246 245 245 246 246 245 245 246 246 246 244 242 244 244 244 247 252 252 254 238 239 237 236 239
257 254 252 252 249 247 247 248 245 244 245 244 244 244 244 244 244 245 246 246 245 243 243 244 243 245 245 244 248 245 247 237 239
266 257 252 251 249 248 247 246 246 246 245 244 244 245 244 243 244 243 244 245 245 244 243 243 243 243 242 243 242 245 246 237 240
278 269 262 256 249 249 247 247 248 247 247 247 246 245 244 244 243 243 243 243 245 244 244 243 242 241 239 239 241 242 241 247 246
278 279 271 263 256 253 249 250 247 248 249 247 245 244 244 244 245 243 243 244 244 243 243 242 242 242 241 239 237 240 241 241 242
278 278 279 270 259 254 253 252 251 248 245 246 246 245 243 243 244 244 244 243 243 243 242 241 241 241 240 240 237 237 239 240 242
279 276 274 274 269 258 251 251 251 250 248 246 245 246 245 244 243 244 244 244 242 243 242 242 240 239 241 239 239 237 237 238 241
279 278 277 270 267 263 260 255 252 249 247 246 246 244 243 244 245 243 244 244 243 242 242 241 241 240 240 240 239 238 237 239 238